193  
ASUS43 KGRB 150200  
RWRGRB  
 
NORTH-CENTRAL AND NORTHEAST WISCONSIN REGIONAL WEATHER ROUNDUP  
NATIONAL WEATHER SERVICE GREEN BAY WI  
900 PM CDT WED APR 14 2021  
 
WIZ005-009-010>012-018-019-150300-  
NORTH CENTRAL WISCONSIN  
 
CITY SKY/WX TMP DP RH WIND PRES REMARKS
 
IRONWOOD CLOUDY 36 35 96 N5 30.11R  
MANITOWISH WTR CLOUDY 35 34 99 N7 30.07R  
ARBOR VITAE CLOUDY 37 28 71 N13 30.05R  
EAGLE RIVER FLURRIES 34 34 100 N9 30.03R  
LAND O LAKES CLOUDY 34 33 94 N12 30.06R  
RHINELANDER CLOUDY 35 32 88 VRB7 30.03S  
PHILLIPS CLOUDY 38 33 84 N9G20 30.07R  
ANTIGO CLOUDY 35 34 96 N13 30.01S  
TOMAHAWK CLOUDY 35 32 88 N9G16 30.05R  
MERRILL CLOUDY 37 35 92 N10G16 30.02R  

 
 
WIZ013-073-150300-  
NORTHEAST WISCONSIN  
 
CITY SKY/WX TMP DP RH WIND PRES REMARKS
 
IRON MOUNTAIN CLOUDY 37 28 70 N8 30.00R  
MARINETTE N/A 38 37 97 CALM 30.01R  

 
 
WIZ017-030-035>037-045-150300-  
CENTRAL WISCONSIN  
 
CITY SKY/WX TMP DP RH WIND PRES REMARKS
 
MEDFORD RAIN 38 36 93 N10 30.04R  
WAUSAU NOT AVBL  
MOSINEE CLOUDY 37 36 93 NW8 30.03S  
MARSHFIELD NOT AVBL  
WISC RAPIDS LGT RAIN 40 30 67 W8 30.05R  
STEVENS POINT NOT AVBL  
WAUPACA DRIZZLE 41 31 68 W7 30.04R  
SHAWANO MOCLDY 40 37 87 NW5 30.01R  
CLINTONVILLE CLOUDY 38 35 88 W8 30.02S  
WAUTOMA CLOUDY 38 29 70 W5 30.05R  

 
 
WIZ038-039-048-051-150300-  
FOX VALLEY  
 
CITY SKY/WX TMP DP RH WIND PRES REMARKS
 
NWS GREEN BAY LGT RAIN 39 34 82 W15 30.01R  
APPLETON MOCLDY 37 21 52 W13 30.00S  
OSHKOSH CLOUDY 38 29 70 W5 30.02S  
FOND DU LAC MOCLDY 37 27 67 SW6 30.03S  

 
 
WIZ022-050-052-150300-  
EAST CENTRAL WISCONSIN  
 
CITY SKY/WX TMP DP RH WIND PRES REMARKS
 
EPHRAIM FAIR 35 34 96 W3 29.98S  
WASHINGTON ISL NOT AVBL  
STURGEON BAY CLOUDY 37 36 96 W5 30.00S  
MANITOWOC CLOUDY 40 31 70 W8 30.01S  
SHEBOYGAN MOCLDY 37 28 70 W9 30.02S  

 
 
LMZ563-521-522-541>543-150300-  
LAKESHORE  
 
STATION/POSITION TIME TEMP WIND PRES VSBY WAVE
 
AIR SEA DIR/SP/G HT/PER  
(UTC) (F) (DEG/KT/KT) (MB) (MI) (FT/S)  
SHEBOYGAN LKSHOR 0100 40 260/ 12/ 13 N/A  
KEWAUNEE LKSHORE 0130 39 280/ 3/ 4 1015.6R  
NORTHPORT PIER 0140 37 250/ 3/ 5 1016.6R  
SISTER BAY LKSHO 0059 38 300/ 7/ 8 N/A  
CHAMBERS ISLAND 0140 38 220/ 4/ 5 N/A  
MENOMINEE LKSHOR 0130 38 50 280/ 4/ 6 1015.7R  

 
 
 
CLICK HERE TO GO TO PREVIOUS BULLETINS.

The Nexlab WI Page Main Text Page